Weather History for Guriat, Saudi Arabia

Change the Weather History Date:

Thursday, February 14, 2013

  Actual Average Record
Temperature  
Mean Temperature 54 °F -  
Max Temperature 70 °F 65 °F 72 °F (2014)
Min Temperature 38 °F 41 °F 28 °F (2005)
Degree Days  
Heating Degree Days 11    
Growing Degree Days 4 (Base 50)    
Moisture  
Dew Point 38 °F    
Average Humidity 50    
Maximum Humidity 81    
Minimum Humidity 25    
Precipitation  
Precipitation 0.00 in - - ()
Sea Level Pressure  
Sea Level Pressure 30.02 in    
Wind  
Wind Speed 9 mph ()    
Max Wind Speed 25 mph    
Max Gust Speed -    
Visibility 3.6 miles    
Events      
Averages and records for this station are not official NWS values.
T = Trace of Precipitation, MM = Missing Value Source: Averaged Metar Reports

Daily Weather History Graph

Daily Weather History Graph

Search for Another Location

Airport:

Trip Planner

Search our weather history database for the weather conditions in past years. The results will help you decide how hot, cold, wet, or windy it might be!

Date:

Astronomy

Feb. 14, 2013 Rise Set
Actual Time 7:13 AM AST 6:17 PM AST
Civil Twilight 6:48 AM AST 6:42 PM AST
Nautical Twilight 6:20 AM AST 7:10 PM AST
Astronomical Twilight 5:51 AM AST 7:38 PM AST
Moon 9:23 AM AST (2/14) 10:36 PM AST (2/14)
Length of Visible Light 11h 53m
Length of Day
11h 03m
Waxing Crescent, 18% of the Moon is Illuminated
Feb 14
Waxing Crescent
Feb 17
First Quarter
Feb 25
Full
Mar 5
Last Quarter
Mar 11
New

Hourly Weather History & Observations

Time (AST) Temp. Windchill Dew Point Humidity Pressure Visibility Wind Dir Wind Speed Gust Speed Precip Events Conditions
12:00 AM 53 °F - 37 °F 44% 30.10 in 6 mi ESE 4.6 mph - -  
12:00 AM 51.8 °F - 37.4 °F 58% 30.09 in - ESE 4.6 mph - N/A   Clear
1:00 AM 51.8 °F - 37.4 °F 58% 30.09 in - East 6.9 mph - N/A   Clear
2:00 AM 50.0 °F - 35.6 °F 58% 30.09 in - ESE 6.9 mph - N/A   Clear
3:00 AM 47 °F - 37 °F 60% 30.08 in 6 mi East 6.9 mph - -  
3:00 AM 46.4 °F 42.9 °F 37.4 °F 71% 30.06 in - East 6.9 mph - N/A   Clear
4:00 AM 44.6 °F 40.7 °F 37.4 °F 76% 30.06 in - East 6.9 mph - N/A   Clear
5:00 AM 42.8 °F 37.5 °F 35.6 °F 76% 30.06 in - East 9.2 mph - N/A   Clear
6:00 AM 42 °F - 36 °F 70% 30.09 in 6 mi East 6.9 mph - -  
6:00 AM 41.0 °F 36.4 °F 35.6 °F 81% 30.06 in - East 6.9 mph - N/A   Clear
7:00 AM 39.2 °F 34.2 °F 33.8 °F 81% 30.09 in - East 6.9 mph - N/A   Clear
8:00 AM 39.2 °F 34.2 °F 33.8 °F 81% 30.09 in - East 6.9 mph - N/A   Clear
9:00 AM 54 °F - 39 °F 46% 30.09 in 6 mi ESE 9.2 mph - -   Overcast
9:00 AM 53.6 °F - 39.2 °F 58% 30.09 in - ESE 9.2 mph - N/A   Clear
10:00 AM 55.4 °F - 37.4 °F 51% 30.09 in 5.0 mi ESE 18.4 mph - N/A   Unknown
11:00 AM 59.0 °F - 37.4 °F 45% 30.06 in 2.5 mi ESE 23.0 mph - N/A   Blowing Sand
12:00 PM 63 °F - 37 °F 27% 30.04 in 1 mi ESE 25.3 mph - -   Blowing Sand
12:00 PM 62.6 °F - 37.4 °F 39% 30.04 in 1.2 mi ESE 25.3 mph - N/A   Blowing Sand
1:00 PM 64.4 °F - 39.2 °F 40% 30.01 in 1.2 mi ESE 25.3 mph - N/A   Blowing Sand
2:00 PM 66.2 °F - 39.2 °F 37% 30.01 in 1.2 mi ESE 25.3 mph - N/A   Blowing Sand
3:00 PM 67 °F - 39 °F 25% 29.94 in 1 mi ESE 20.7 mph - -   Blowing Sand
3:00 PM 66.2 °F - 39.2 °F 37% 29.95 in 1.2 mi ESE 20.7 mph - N/A   Sand
4:00 PM 68.0 °F - 37.4 °F 33% 29.95 in 1.2 mi ESE 16.1 mph - N/A   Sand
5:00 PM 66.2 °F - 37.4 °F 35% 29.92 in 2.5 mi ESE 11.5 mph - N/A   Sand
6:00 PM 64 °F - 39 °F 28% 29.93 in 4 mi ESE 11.5 mph - -   Blowing Sand
6:00 PM 64.4 °F - 39.2 °F 40% 29.92 in 4.3 mi ESE 11.5 mph - N/A   Blowing Sand
7:00 PM 62.6 °F - 39.2 °F 42% 29.92 in 5.0 mi ESE 13.8 mph - N/A   Blowing Sand
8:00 PM 62.6 °F - 39.2 °F 42% 29.92 in 5.0 mi WNW 4.6 mph - N/A   Unknown
9:00 PM 65 °F - 39 °F 27% 29.95 in 5 mi WNW 11.5 mph - -   Widespread Dust
9:00 PM 64.4 °F - 39.2 °F 40% 29.95 in 5.0 mi WNW 11.5 mph - N/A   Unknown
10:00 PM 64.4 °F - 39.2 °F 40% 29.95 in 5.0 mi WNW 11.5 mph - N/A   Unknown
11:00 PM 64.4 °F - 39.2 °F 40% 29.92 in 5.0 mi East 4.6 mph - N/A   Scattered Clouds